Weather History for Astoria, OR

Change the Weather History Date:

Saturday, April 14, 2012

  Actual Average Record
Temperature  
Mean Temperature 48 °F 48 °F  
Max Temperature 54 °F 56 °F 79 °F (1947)
Min Temperature 41 °F 41 °F 31 °F (2001)
Degree Days  
Heating Degree Days 17 17  
Month to date heating degree days 243 239  
Since 1 July heating degree days 4377 4159  
Cooling Degree Days 0 0  
Month to date cooling degree days 0 0  
Year to date cooling degree days 0 0  
Moisture  
Dew Point 42 °F    
Average Humidity 82    
Maximum Humidity 93    
Minimum Humidity 71    
Precipitation  
Precipitation 0.00 in 0.17 in 2.28 in (1937)
Month to date precipitation 1.60 2.69  
Year to date precipitation 33.33 27.53  
Snow  
Snow 0.00 in - - ()
Month to date snowfall 0.0  
Snow Depth 0.00 in    
Sea Level Pressure  
Sea Level Pressure 30.11 in    
Wind  
Wind Speed 6 mph (WSW)    
Max Wind Speed 15 mph    
Max Gust Speed 17 mph    
Visibility 10 miles    
Events      
T = Trace of Precipitation, MM = Missing Value Source: NWS Daily Summary

Daily Weather History Graph

Daily Weather History Graph

Search for Another Location

Airport:

Trip Planner

Search our weather history database for the weather conditions in past years. The results will help you decide how hot, cold, wet, or windy it might be!

Date:

Astronomy

Apr. 14, 2012 Rise Set
Actual Time 6:29 AM PDT 8:02 PM PDT
Civil Twilight 5:58 AM PDT 8:33 PM PDT
Nautical Twilight 5:20 AM PDT 9:11 PM PDT
Astronomical Twilight 4:39 AM PDT 9:53 PM PDT
Moon 3:17 AM PDT (4/14) 1:41 PM PDT (4/14)
Length of Visible Light 14h 35m
Length of Day
13h 32m
Last Quarter, 36% of the Moon is Illuminated
Apr 14
Last Quarter
Apr 21
New
Apr 29
First Quarter
May 5
Full
May 12
Last Quarter

Hourly Weather History & Observations

Time (PDT) Temp. Windchill Dew Point Humidity Pressure Visibility Wind Dir Wind Speed Gust Speed Precip Events Conditions
12:55 AM 46.0 °F 43.1 °F 44.1 °F 93% 29.95 in 10.0 mi WNW 5.8 mph - N/A   Clear
1:55 AM 44.1 °F 42.5 °F 41.0 °F 89% 29.97 in 10.0 mi Variable 3.5 mph - N/A   Partly Cloudy
2:55 AM 42.1 °F - 39.9 °F 92% 29.99 in 10.0 mi Calm Calm - N/A   Partly Cloudy
3:10 AM 42.8 °F - 39.2 °F 87% 29.99 in 10.0 mi Calm Calm - N/A   Mostly Cloudy
3:34 AM 46.4 °F 43.5 °F 42.8 °F 87% 29.99 in 10.0 mi WNW 5.8 mph - N/A   Overcast
3:55 AM 44.1 °F - 42.1 °F 93% 29.99 in 10.0 mi Calm Calm - N/A   Mostly Cloudy
4:04 AM 44.6 °F 42.2 °F 42.8 °F 93% 29.99 in 10.0 mi ESE 4.6 mph - N/A   Scattered Clouds
4:24 AM 42.8 °F - 41.0 °F 93% 30.00 in 10.0 mi Calm Calm - N/A   Mostly Cloudy
4:55 AM 44.1 °F - 42.1 °F 93% 30.01 in 10.0 mi Calm Calm - N/A   Overcast
5:55 AM 46.0 °F 44.8 °F 42.1 °F 86% 30.02 in 10.0 mi Variable 3.5 mph - N/A   Overcast
6:55 AM 46.9 °F - 42.1 °F 83% 30.04 in 10.0 mi Variable 4.6 mph - N/A   Overcast
7:55 AM 46.9 °F - 44.1 °F 90% 30.06 in 10.0 mi West 4.6 mph - N/A   Overcast
8:55 AM 48.0 °F - 43.0 °F 83% 30.09 in 10.0 mi West 4.6 mph - N/A   Overcast
9:55 AM 48.9 °F - 44.1 °F 83% 30.11 in 10.0 mi WNW 5.8 mph - N/A   Overcast
10:55 AM 50.0 °F - 44.1 °F 80% 30.12 in 10.0 mi West 6.9 mph - N/A   Overcast
11:55 AM 51.1 °F - 43.0 °F 74% 30.14 in 10.0 mi West 11.5 mph - N/A   Overcast
12:55 PM 51.1 °F - 43.0 °F 74% 30.15 in 10.0 mi West 10.4 mph - N/A   Overcast
1:55 PM 52.0 °F - 43.0 °F 71% 30.16 in 10.0 mi West 8.1 mph - N/A   Overcast
2:29 PM 51.8 °F - 44.6 °F 76% 30.16 in 10.0 mi WSW 9.2 mph - N/A   Overcast
2:47 PM 51.8 °F - 42.8 °F 71% 30.16 in 10.0 mi WSW 6.9 mph - N/A   Mostly Cloudy
2:55 PM 52.0 °F - 43.0 °F 71% 30.17 in 10.0 mi WSW 10.4 mph - N/A   Mostly Cloudy
3:55 PM 52.0 °F - 44.1 °F 74% 30.17 in 10.0 mi WSW 10.4 mph - N/A   Mostly Cloudy
4:55 PM 51.1 °F - 42.1 °F 71% 30.17 in 10.0 mi WSW 10.4 mph - N/A   Mostly Cloudy
5:55 PM 51.1 °F - 42.1 °F 71% 30.17 in 10.0 mi WSW 8.1 mph - N/A   Mostly Cloudy
6:55 PM 50.0 °F - 42.1 °F 74% 30.18 in 10.0 mi West 9.2 mph - N/A   Mostly Cloudy
7:55 PM 48.0 °F - 41.0 °F 77% 30.19 in 10.0 mi WSW 5.8 mph - N/A   Mostly Cloudy
8:55 PM 46.0 °F 43.9 °F 41.0 °F 83% 30.20 in 10.0 mi SW 4.6 mph - N/A   Mostly Cloudy
9:55 PM 46.9 °F - 41.0 °F 80% 30.20 in 10.0 mi SSW 3.5 mph - N/A   Overcast
10:55 PM 46.0 °F - 41.0 °F 83% 30.20 in 10.0 mi Calm Calm - N/A   Mostly Cloudy
11:43 PM 46.4 °F 45.2 °F 41.0 °F 81% 30.21 in 10.0 mi WSW 3.5 mph - N/A   Scattered Clouds
11:51 PM 44.6 °F 43.1 °F 41.0 °F 87% 30.21 in 10.0 mi SW 3.5 mph - N/A   Mostly Cloudy
11:55 PM 45.0 °F 43.5 °F 41.0 °F 86% 30.21 in 10.0 mi SW 3.5 mph - N/A   Mostly Cloudy